Tracking 19638 objects as of 22-Apr-2019
HD Live streaming from Space Station
objects crossing your sky now

THORAD AGENA D DEB

Track THORAD AGENA D DEB now!
10-day predictions


NORAD ID: 4748
Int'l Code: 1970-025CW
Perigee: 1,029.5 km
Apogee: 1,039.3 km
Inclination: 100.0 °
Period: 105.7 minutes
Semi major axis: 7405 km
RCS: 0.1028 m2 (medium)
Launch date: April 8, 1970
Source: United States (US)
Launch site: AIR FORCE WESTERN TEST RANGE (AFWTR)

Note: This is SATELLITE DEBRIS
aabbcc
Your satellite tracking list
Your tracking list is empty




NASA's NSSDC Master Catalog

Two Line Element Set (TLE):
1  4748U 70025CW  19110.80376212  .00000102  00000-0  19300-3 0  9997
2  4748 100.0181 177.1572 0006680 191.5526 282.0763 13.62323074427232
Source of the keplerian elements: AFSPC